Regional Weather Roundup
Issued by NWS New Orleans/Baton Rouge, LA

Home | Current Version | Previous Version | Text Only | Print | Product List | Glossary On
Versions: 1 2 3 4 5 6 7 8 9 10 11 12 13 14 15 16 17 18 19 20 21 22 23 24 25 26 27
000
ASUS44 KLIX 290511
RWRLIX
NEW ORLEANS REGIONAL WEATHER ROUNDUP
NATIONAL WEATHER SERVICE NEW ORLEANS LA
1200 AM CDT SUN MAY 29 2016

NOTE: "FAIR" INDICATES FEW OR NO CLOUDS BELOW 12,000 FEET WITH NO
      SIGNIFICANT WEATHER AND/OR OBSTRUCTIONS TO VISIBILITY.
      SKY/WX - SKY CONDITION AND SIGNIFICANT WEATHER.
      TMP - AIR TEMPERATURE.     DP    - DEWPOINT TEMPERATURE.
      RH  - RELATIVE HUMIDITY.   PRES  - PRESSURE.
      HI  - HEAT INDEX.          WCI   - WIND CHILL INDEX.

*  THESE STATIONS ARE NOT NWS OR FAA STATIONS AND ARE NOT UNDER
   NWS QUALITY CONTROL.

LAZ038-040-048-061>063-065>067-069-290600-
SOUTHEAST LOUISIANA

CITY           SKY/WX    TMP DP  RH WIND       PRES   REMARKS
N.O. AUDUBON     N/A     73  70  92 MISG        N/A
N.O. INTL ARPT PTCLDY    73  69  87 CALM      30.06S
N.O. LAKEFRONT CLEAR     74  69  85 E5        30.06F
N.O. DOWNTOWN*   N/A     75  70  84 SE3       30.07S
RESERVE*         N/A     73  71  93 CALM      30.06S
SLIDELL        CLEAR     69  68  96 CALM      30.06S
BATON ROUGE    CLEAR     72  68  87 CALM      30.07R
BOOTHVILLE     CLEAR     74  72  93 SE3       30.06F
BELLE CHASSE   CLEAR     69  68  96 CALM      30.06S
BOGALUSA*        N/A     69  65  89 CALM      30.09R
GALLIANO*      CLEAR     69  67  94 CALM      30.06R
NEW ROADS*       N/A     73  69  89 CALM      30.07S
GONZALES*        N/A     69  69 100 CALM      30.06S
HAMMOND*       CLEAR     70  66  88 CALM      30.06S
HOUMA*         CLEAR     70  70  99 CALM      30.06S FOG
PORT FOURCHON* CLEAR     77  72  83 SE6       30.06R

$$

MSZ070-080>082-290600-
SOUTHERN MISSISSIPPI

CITY           SKY/WX    TMP DP  RH WIND       PRES   REMARKS
MCCOMB         CLEAR     69  66  90 CALM      30.08S
GULFPORT       CLEAR     71  68  90 CALM      30.06F
BILOXI         CLEAR     73  73 100 NE2       30.07S
PASCAGOULA     CLEAR     67  66  97 CALM      30.07S

$$

COASTAL OBSERVATIONS
LAKE AND NEARSHORE STATIONS

STATION/POSITION TIME  TEMP    WIND        PRES    WAVE
                       AIR SEA DIR/SP/G            HT/PER
                 (UTC) (F)     (DEG/KT/KT) (MB)    (FT/S)
PASCAGOULA       0400   78     190/  4/  5 1017.9
WAVELAND YACHT   0400   73 80  320/  2/  2 1018.1
GRAND ISLE       0400   76 81  120/  3/  7 1017.6
SOUTHWEST PASS   0400           40/  6/  7   N/A
NEW CANAL        0400   73 80   80/  1/  2 1017.2
SHELL BEACH      0400   76 80  120/  6/  7 1017.8

OFFSHORE STATIONS

STATION/POSITION TIME  TEMP    WIND        PRES    WAVE
                       AIR SEA DIR/SP/G            HT/PER
                 (UTC) (F)     (DEG/KT/KT) (MB)    (FT/S)
64 S DAUPHIN ISL 0400   79 80  100/  6/  8 1018.0

$$





USA.gov is the U.S. government's official web portal to all federal, state and local government web resources and services.